(494277) = 2016 RG4

Discovered at Mount Lemmon on 2008-10-28 by Mt. Lemmon Survey.

Orbit

Orbit type: Main Belt

Note: WebGL enabled browser required.

epoch2023-02-25.0
epoch JD2460000.5
perihelion date2020-09-04.69619
perihelion JD2459097.19619
argument of perihelion (°)45.77689
ascending node (°)266.13970
inclination (°)8.58109
eccentricity0.0726637
perihelion distance (AU)2.4300947
Tisserand w.r.t. Jupiter3.4
ΔV w.r.t. Earth (km/sec)10.1
semimajor axis (AU)2.6205106
mean anomaly (°)209.87408
mean daily motion (°/day)0.23234050
aphelion distance (AU)2.811
period (years)4.24
P-vector [x]0.66004405
P-vector [y]-0.72475286
P-vector [z]-0.19767430
Q-vector [x]0.73632836
Q-vector [y]0.57200910
Q-vector [z]0.36142238
absolute magnitude16.66
phase slope0.15
uncertainty0
referenceMPO 745323
observations used232
oppositions11
arc length (days)5307
first opposition used2008
last opposition used2023
residual rms (arc-secs)0.84
perturbers coarse indicatorM-v
perturbers precise indicator003Ek
first observation date used2008-10-28.0
last observation date used2023-05-10.0
computer nameMPCLINUX
Minimum Orbit Intersection Distances (in AU)
for orbit epoch: 2460000.5, reference: E2023-J99
Mercury1.99786
Venus1.71292
Earth1.42269
Mars1.01536
Jupiter2.35839
Saturn6.29208
Uranus15.699
Neptune27.2672

Observations

237 total observations over interval: 2008 10 28.26800 – 2023 05 10.10917
These data are available for download (format description).

Date (UT) J2000 RA J2000 Dec Magn Location Ref
2008 10 28.26800 01 51 10.54 +23 09 27.0 20.0 V G96 – Mt. Lemmon Survey MPS 732505
2008 10 28.27355 01 51 10.26 +23 09 24.4 20.0 V G96 – Mt. Lemmon Survey MPS 732505
2008 10 28.27921 01 51 09.93 +23 09 22.1 19.9 V G96 – Mt. Lemmon Survey MPS 732505
2008 10 28.28465 01 51 09.64 +23 09 19.7 20.0 V G96 – Mt. Lemmon Survey MPS 732505
2008 11 09.10477 01 41 21.58 +21 36 49.3 19.9 V G96 – Mt. Lemmon Survey MPS 732505
2008 11 09.11602 01 41 21.08 +21 36 43.6 19.8 V G96 – Mt. Lemmon Survey MPS 732505
2008 11 09.12168 01 41 20.83 +21 36 41.0 20.0 V G96 – Mt. Lemmon Survey MPS 732505
2010 01 08.34568 09 10 47.77 +07 30 43.9 21.2 V 691 – Steward Observatory, Kitt Peak-Spacewatch MPS 732505
2010 01 08.36333 09 10 47.00 +07 30 43.1 21.2 V 691 – Steward Observatory, Kitt Peak-Spacewatch MPS 732505
2010 01 08.38098 09 10 46.22 +07 30 42.7 21.3 V 691 – Steward Observatory, Kitt Peak-Spacewatch MPS 732505
2011 05 21.33052 15 13 45.78 -25 29 21.7 19.5 R 926 – Tenagra II Observatory, Nogales MPS 732505
2011 05 21.34100 15 13 45.18 -25 29 17.4 19.6 R 926 – Tenagra II Observatory, Nogales MPS 732505
2011 05 21.35191 15 13 44.58 -25 29 12.4 19.6 R 926 – Tenagra II Observatory, Nogales MPS 732505
2011 06 10.20418 14 58 50.59 -23 08 44.8 20.2 V G96 – Mt. Lemmon Survey MPS 732505
2011 06 10.21296 14 58 50.34 -23 08 41.4 20.1 V G96 – Mt. Lemmon Survey MPS 732505
2011 06 10.22192 14 58 49.98 -23 08 37.2 19.7 V G96 – Mt. Lemmon Survey MPS 732505
2011 06 10.23095 14 58 49.69 -23 08 34.1 20.3 V G96 – Mt. Lemmon Survey MPS 732505
2012 10 19.13802 23 39 46.08 +12 14 23.1 19.3 V 703 – Catalina Sky Survey MPS 732505
2012 10 19.14308 23 39 45.79 +12 14 21.0 19.0 V 703 – Catalina Sky Survey MPS 732505
2012 10 19.14815 23 39 45.54 +12 14 18.6 19.5 V 703 – Catalina Sky Survey MPS 732505
2012 10 19.15316 23 39 45.43 +12 14 16.9 20.2 V 703 – Catalina Sky Survey MPS 732505
2015 01 31.63307 13 41 57.615 -20 50 32.67 21.3 w F51 – Pan-STARRS 1, Haleakala MPS 732505
2015 01 31.64406 13 41 57.985 -20 50 36.73 21.3 w F51 – Pan-STARRS 1, Haleakala MPS 732505
2015 01 31.65509 13 41 58.353 -20 50 40.87 21.4 w F51 – Pan-STARRS 1, Haleakala MPS 732505
2015 04 21.16949 13 17 55.86 -20 54 22.6 20.0 V W84 – Cerro Tololo-DECam MPS 785723
2015 04 21.17269 13 17 55.69 -20 54 21.3   W84 – Cerro Tololo-DECam MPS 785723
2015 04 21.17596 13 17 55.51 -20 54 19.9   W84 – Cerro Tololo-DECam MPS 785723
2015 04 21.17919 13 17 55.34 -20 54 18.6   W84 – Cerro Tololo-DECam MPS 785723
2015 04 21.18241 13 17 55.17 -20 54 17.1   W84 – Cerro Tololo-DECam MPS 785723
2015 04 22.16830 13 17 04.64 -20 47 18.3 20.1 V W84 – Cerro Tololo-DECam MPS 785723
2015 04 22.17155 13 17 04.47 -20 47 17.0   W84 – Cerro Tololo-DECam MPS 785723
2015 04 22.17478 13 17 04.30 -20 47 15.5   W84 – Cerro Tololo-DECam MPS 785723
2015 04 22.17805 13 17 04.13 -20 47 14.2   W84 – Cerro Tololo-DECam MPS 785723
2015 04 22.18126 13 17 03.95 -20 47 12.8   W84 – Cerro Tololo-DECam MPS 785723
2015 05 14.37878 13 01 56.406 -18 00 07.37 20.0 w F52 – Pan-STARRS 2, Haleakala MPS 732505
2015 05 14.39179 13 01 56.023 -18 00 01.61 20.0 w F52 – Pan-STARRS 2, Haleakala MPS 732505
2015 05 14.40478 13 01 55.633 -17 59 56.00 19.9 w F52 – Pan-STARRS 2, Haleakala MPS 732505
2015 05 14.41776 13 01 55.256 -17 59 50.18 20.3 w F52 – Pan-STARRS 2, Haleakala MPS 732505
2016 07 09.58085 22 27 09.711 +01 10 10.66 20.8 w F51 – Pan-STARRS 1, Haleakala MPS 727964
2016 07 09.58948 22 27 09.628 +01 10 13.40 20.8 w F51 – Pan-STARRS 1, Haleakala MPS 727964
2016 07 09.59810 22 27 09.551 +01 10 15.95 20.9 w F51 – Pan-STARRS 1, Haleakala MPS 727964
2016 07 09.60667 22 27 09.476 +01 10 18.70 20.9 w F51 – Pan-STARRS 1, Haleakala MPS 727964
2016 07 28.53122 22 20 26.626 +02 18 19.59 20.3 r F51 – Pan-STARRS 1, Haleakala MPS 727964
2016 07 28.54468 22 20 26.129 +02 18 21.07 20.3 r F51 – Pan-STARRS 1, Haleakala MPS 727964
2016 07 28.55814 22 20 25.628 +02 18 22.73 20.2 r F51 – Pan-STARRS 1, Haleakala MPS 727964
2016 07 28.57170 22 20 25.118 +02 18 23.95 20.2 r F51 – Pan-STARRS 1, Haleakala MPS 727964
2016 08 14.46219 22 07 56.860 +02 19 47.82 19.5 r F51 – Pan-STARRS 1, Haleakala MPS 727964
2016 08 14.47420 22 07 56.214 +02 19 46.74 19.6 r F51 – Pan-STARRS 1, Haleakala MPS 727964
2016 08 14.48622 22 07 55.574 +02 19 45.58 19.5 r F51 – Pan-STARRS 1, Haleakala MPS 727964
2016 08 14.49823 22 07 54.935 +02 19 44.49 19.6 r F51 – Pan-STARRS 1, Haleakala MPS 727964
2016 08 27.67291 21 56 25.44 +01 44 04.3 20.1 R D29 – Purple Mountain Observatory, XuYi Station MPS 727964
2016 08 27.69058 21 56 24.50 +01 44 01.9 20.2 R D29 – Purple Mountain Observatory, XuYi Station MPS 727964
2016 08 27.70826 21 56 23.57 +01 43 58.1 20.0 R D29 – Purple Mountain Observatory, XuYi Station MPS 727964
2016 08 29.16955 21 55 08.87 +01 38 26.2 20.0 V G96 – Mt. Lemmon Survey MPS 727964
2016 08 29.17661 21 55 08.47 +01 38 24.6 19.9 V G96 – Mt. Lemmon Survey MPS 727964
2016 08 29.18349 21 55 08.10 +01 38 23.1 19.8 V G96 – Mt. Lemmon Survey MPS 727964
2016 08 29.19051 21 55 07.74 +01 38 21.4 20.0 V G96 – Mt. Lemmon Survey MPS 727964
2016 09 03.29610 21 50 54.95 +01 17 14.9 19.9 V G96 – Mt. Lemmon Survey MPS 727964
2016 09 03.29796 21 50 54.82 +01 17 14.4 20.0 V G96 – Mt. Lemmon Survey MPS 727964
2016 09 03.29982 21 50 54.75 +01 17 13.8 20.0 V G96 – Mt. Lemmon Survey MPS 727964
2016 09 03.30172 21 50 54.65 +01 17 13.3 20.1 V G96 – Mt. Lemmon Survey MPS 727964
2016 09 03.32431 21 50 53.50 +01 17 07.1 19.9 V 691 – Steward Observatory, Kitt Peak-Spacewatch MPS 727964
2016 09 03.33459 21 50 53.00 +01 17 04.8 20.1 V 691 – Steward Observatory, Kitt Peak-Spacewatch MPS 727964
2016 09 03.34520 21 50 52.47 +01 17 01.9 20.1 V 691 – Steward Observatory, Kitt Peak-Spacewatch MPS 727964
2016 09 04.19630 21 50 12.61 +01 13 17.0 19.8 V 691 – Steward Observatory, Kitt Peak-Spacewatch MPS 727964
2016 09 04.20430 21 50 12.23 +01 13 14.7 19.8 V 691 – Steward Observatory, Kitt Peak-Spacewatch MPS 727964
2016 09 04.21235 21 50 11.82 +01 13 12.6 19.7 V 691 – Steward Observatory, Kitt Peak-Spacewatch MPS 727964
2016 09 04.26937 21 50 09.06 +01 12 57.3 19.6 V G96 – Mt. Lemmon Survey MPS 727964
2016 09 04.27178 21 50 08.93 +01 12 56.3 19.6 V G96 – Mt. Lemmon Survey MPS 727964
2016 09 04.27420 21 50 08.80 +01 12 56.0 19.8 V G96 – Mt. Lemmon Survey MPS 727964
2016 09 04.27665 21 50 08.69 +01 12 55.5 19.7 V G96 – Mt. Lemmon Survey MPS 727964
2016 09 05.28568 21 49 21.96 +01 08 24.2 19.8 V G96 – Mt. Lemmon Survey MPS 727964
2016 09 05.28612 21 49 21.94 +01 08 23.8 19.8 V G96 – Mt. Lemmon Survey MPS 727964
2016 09 05.29053 21 49 21.72 +01 08 22.7 19.8 V G96 – Mt. Lemmon Survey MPS 727964
2016 09 05.29097 21 49 21.69 +01 08 22.8 19.8 V G96 – Mt. Lemmon Survey MPS 727964
2016 09 05.29536 21 49 21.50 +01 08 21.0 19.6 V G96 – Mt. Lemmon Survey MPS 727964
2016 09 05.29582 21 49 21.47 +01 08 21.0 19.8 V G96 – Mt. Lemmon Survey MPS 727964
2016 09 05.30022 21 49 21.25 +01 08 19.9 19.7 V G96 – Mt. Lemmon Survey MPS 727964
2016 09 05.30068 21 49 21.25 +01 08 19.9 19.8 V G96 – Mt. Lemmon Survey MPS 727964
2016 09 06.18450 21 48 41.36 +01 04 18.8 20.1 V G96 – Mt. Lemmon Survey MPS 727964
2016 09 06.19154 21 48 41.02 +01 04 16.8 20.1 V G96 – Mt. Lemmon Survey MPS 727964
2016 09 06.19860 21 48 40.68 +01 04 15.0 20.0 V G96 – Mt. Lemmon Survey MPS 727964
2016 09 06.20566 21 48 40.37 +01 04 13.0 20.0 V G96 – Mt. Lemmon Survey MPS 727964
2016 09 09.22158 21 46 29.65 +00 50 10.2 19.6 V G96 – Mt. Lemmon Survey MPS 727964
2016 09 09.22608 21 46 29.44 +00 50 09.3 19.5 V G96 – Mt. Lemmon Survey MPS 727964
2016 09 09.23059 21 46 29.28 +00 50 08.3 19.8 V G96 – Mt. Lemmon Survey MPS 727964
2016 09 09.23512 21 46 29.05 +00 50 06.7 19.8 V G96 – Mt. Lemmon Survey MPS 727964
2016 09 10.21198 21 45 48.95 +00 45 28.4 18.9 V G96 – Mt. Lemmon Survey MPS 727964
2016 09 10.26857 21 45 46.52 +00 45 11.3 18.9 V G96 – Mt. Lemmon Survey MPS 727964
2016 09 10.29728 21 45 45.33 +00 45 04.7 19.3 V G96 – Mt. Lemmon Survey MPS 727964
2016 09 26.30047 21 37 57.850 -00 30 45.58 19.8 w F51 – Pan-STARRS 1, Haleakala MPS 730793
2016 09 26.31158 21 37 57.631 -00 30 48.62 19.9 w F51 – Pan-STARRS 1, Haleakala MPS 730793
2016 09 26.32270 21 37 57.415 -00 30 51.61 19.8 w F51 – Pan-STARRS 1, Haleakala MPS 730793
2016 09 26.35856 21 37 56.748 -00 31 01.19 19.8 w F51 – Pan-STARRS 1, Haleakala MPS 730793
2016 10 15.29326 21 37 39.971 -01 39 53.32 20.1 i F51 – Pan-STARRS 1, Haleakala MPS 736267
2016 10 15.30564 21 37 40.142 -01 39 55.39 19.9 i F51 – Pan-STARRS 1, Haleakala MPS 736267
